Weather History for Louisville Bowman, KY

Change the Weather History Date:

Tuesday, December 11, 2012

  Actual Average Record
Temperature  
Mean Temperature 33 °F 38 °F  
Max Temperature 37 °F 46 °F 72 °F (2007)
Min Temperature 28 °F 30 °F 2 °F (1962)
Degree Days  
Heating Degree Days 32 27  
Month to date heating degree days 145 282  
Since 1 July heating degree days 1080 1086  
Cooling Degree Days 0 0  
Month to date cooling degree days 3 0  
Year to date cooling degree days 1854 1444  
Moisture  
Dew Point 25 °F    
Average Humidity 69    
Maximum Humidity 85    
Minimum Humidity 52    
Precipitation  
Precipitation 0.00 in 0.13 in 1.85 in (1964)
Month to date precipitation 4.10 1.51  
Year to date precipitation 42.64 43.04  
Sea Level Pressure  
Sea Level Pressure 30.14 in    
Wind  
Wind Speed 4 mph (West)    
Max Wind Speed 13 mph    
Max Gust Speed 16 mph    
Visibility 10 miles    
Events      
T = Trace of Precipitation, MM = Missing Value Source: NWS Daily Summary

Daily Weather History Graph

Daily Weather History Graph

Search for Another Location

Airport:

Trip Planner

Search our weather history database for the weather conditions in past years. The results will help you decide how hot, cold, wet, or windy it might be!

Date:

Astronomy

Dec. 11, 2012 Rise Set
Actual Time 7:49 AM EST 5:22 PM EST
Civil Twilight 7:20 AM EST 5:52 PM EST
Nautical Twilight 6:47 AM EST 6:25 PM EST
Astronomical Twilight 6:14 AM EST 6:57 PM EST
Moon 5:44 AM EST (12/11) 4:00 PM EST (12/11)
Length of Visible Light 10h 32m
Length of Day
9h 33m
Waning Crescent, 4% of the Moon is Illuminated
Dec 11
Waning Crescent
Dec 13
New
Dec 20
First Quarter
Dec 28
Full
Jan 4
Last Quarter

Hourly Weather History & Observations

Time (EST) Temp. Windchill Dew Point Humidity Pressure Visibility Wind Dir Wind Speed Gust Speed Precip Events Conditions
12:53 AM 33.1 °F 24.9 °F 27.0 °F 78% 30.02 in 10.0 mi West 10.4 mph - N/A   Overcast
1:15 AM 33.8 °F 28.6 °F 26.6 °F 75% 30.01 in 10.0 mi WNW 5.8 mph - N/A   Overcast
1:25 AM 33.8 °F 27.7 °F 26.6 °F 75% 30.01 in 10.0 mi West 6.9 mph - N/A   Overcast
1:53 AM 33.1 °F 26.9 °F 27.0 °F 78% 30.02 in 10.0 mi West 6.9 mph - N/A   Overcast
2:12 AM 33.8 °F 27.7 °F 26.6 °F 75% 30.02 in 10.0 mi West 6.9 mph - N/A   Overcast
2:44 AM 32.0 °F 26.4 °F 26.6 °F 80% 30.03 in 10.0 mi WNW 5.8 mph - N/A   Overcast
2:53 AM 33.1 °F 26.9 °F 27.0 °F 78% 30.05 in 10.0 mi WNW 6.9 mph - N/A   Overcast
3:26 AM 32.0 °F 25.6 °F 26.6 °F 80% 30.03 in 10.0 mi WNW 6.9 mph - N/A   Overcast
3:53 AM 30.9 °F 25.2 °F 27.0 °F 85% 30.05 in 10.0 mi West 5.8 mph - N/A   Overcast
4:53 AM 30.9 °F 26.2 °F 26.1 °F 82% 30.07 in 10.0 mi West 4.6 mph - N/A   Overcast
5:53 AM 30.9 °F 25.2 °F 26.1 °F 82% 30.09 in 10.0 mi West 5.8 mph - N/A   Overcast
6:38 AM 30.2 °F 26.7 °F 26.6 °F 86% 30.09 in 10.0 mi West 3.5 mph - N/A   Mostly Cloudy
6:53 AM 30.9 °F 27.5 °F 26.1 °F 82% 30.11 in 10.0 mi WNW 3.5 mph - N/A   Overcast
7:53 AM 30.9 °F 26.2 °F 26.1 °F 82% 30.13 in 10.0 mi NW 4.6 mph - N/A   Overcast
8:53 AM 30.9 °F - 25.0 °F 79% 30.15 in 10.0 mi Calm Calm - N/A   Mostly Cloudy
9:00 AM 30.2 °F - 24.8 °F 80% 30.14 in 10.0 mi Calm Calm - N/A   Overcast
9:53 AM 33.1 °F 25.5 °F 24.1 °F 70% 30.18 in 10.0 mi West 9.2 mph - N/A   Mostly Cloudy
10:53 AM 33.1 °F 27.7 °F 23.0 °F 66% 30.20 in 10.0 mi West 5.8 mph - N/A   Overcast
11:53 AM 33.1 °F 26.1 °F 21.9 °F 64% 30.20 in 10.0 mi SW 8.1 mph - N/A   Overcast
12:00 PM 33.8 °F - 21.2 °F 60% 30.18 in 10.0 mi Calm Calm - N/A   Overcast
12:53 PM 34.0 °F - 21.9 °F 61% 30.19 in 10.0 mi Calm Calm - N/A   Scattered Clouds
1:53 PM 35.1 °F 29.3 °F 23.0 °F 61% 30.18 in 10.0 mi SW 6.9 mph - N/A   Partly Cloudy
2:53 PM 36.0 °F 32.1 °F 23.0 °F 59% 30.17 in 10.0 mi Variable 4.6 mph - N/A   Clear
3:53 PM 37.0 °F 33.3 °F 21.0 °F 52% 30.19 in 10.0 mi Variable 4.6 mph - N/A   Clear
4:53 PM 36.0 °F - 21.9 °F 57% 30.19 in 10.0 mi Calm Calm - N/A   Clear
5:53 PM 36.0 °F - 21.9 °F 57% 30.19 in 10.0 mi Calm Calm - N/A   Clear
6:53 PM 35.1 °F - 23.0 °F 61% 30.21 in 10.0 mi Calm Calm - N/A   Clear
7:53 PM 33.1 °F - 23.0 °F 66% 30.22 in 10.0 mi Calm Calm - N/A   Clear
8:53 PM 32.0 °F - 23.0 °F 69% 30.24 in 10.0 mi Calm Calm - N/A   Clear
9:53 PM 30.9 °F - 24.1 °F 76% 30.25 in 10.0 mi Calm Calm - N/A   Clear
10:53 PM 30.0 °F - 24.1 °F 79% 30.26 in 10.0 mi Calm Calm - N/A   Clear
11:53 PM 28.0 °F - 23.0 °F 81% 30.29 in 10.0 mi Calm Calm - N/A   Clear